Surface/Precipitation History
11/22/2017 09:39  to  11/23/2017 09:39
Change End Date:
Date/Time
(MST)
Sf
Temp Chem Water Layer Surface Precipitation
Sfc Pvt Sub Frz Factor Pct Dpth DpthThk IcePct Cond Salin FI Type Intens Accum Rate
11/23/2017 09:27 Wet 35.8F - - 32F 15 1% 0.00 in - 0% 5 mhos 439 - Yes - - -
11/23/2017 09:26 Wet 35.8F - - 32F 20 1% 0.00 in - 0% 5 mhos 440 - Yes - - -
11/23/2017 09:16 Wet 35.2F - - 32F 15 1% 0.00 in - 0% 5 mhos 448 - Yes - - -
11/23/2017 09:11 Wet 35.2F - - 32F 20 1% 0.00 in - 0% 5 mhos 449 - Yes - - -
11/23/2017 09:06 Wet 35.2F - - 32F 20 2% 0.00 in - 0% 5 mhos 452 - Yes - - -
11/23/2017 08:57 Wet 34.7F - - 32F 20 2% 0.00 in - 0% 5 mhos 456 - Yes - - -
11/23/2017 08:56 Wet 34.5F - - 32F 20 2% 0.00 in - 0% 5 mhos 457 - Yes - - -
11/23/2017 08:46 Wet 34.7F - - 32F 25 2% 0.00 in - 0% 5 mhos 459 - Yes - - -
11/23/2017 08:41 Wet 34.2F - - 32F 25 2% 0.00 in - 0% 5 mhos 458 - Yes - - -
11/23/2017 08:36 Wet 34.0F - - 32F 25 2% 0.00 in - 0% 5 mhos 459 - Yes - - -
11/23/2017 08:26 Wet 34.0F - - 32F 35 2% 0.00 in - 0% 5 mhos 458 - Yes - - -
11/23/2017 08:26 Wet 33.8F - - 32F 35 2% 0.00 in - 0% 5 mhos 458 - Yes - - -
11/23/2017 08:16 Wet 34.0F - - 32F 30 2% 0.00 in - 0% 5 mhos 456 - Yes - - -
11/23/2017 08:11 Wet 34.0F - - 32F 30 2% 0.00 in - 0% 5 mhos 456 - Yes - - -
11/23/2017 08:06 Wet 34.0F - - 32F 30 2% 0.00 in - 0% 5 mhos 455 - Yes - - -
Date/Time
(MST)
Sf
Temp Chem Water Layer Surface Precipitation
Sfc Pvt Sub Frz Factor Pct Dpth DpthThk IcePct Cond Salin FI Type Intens Accum Rate
11/23/2017 07:56 Wet 34.0F - - 32F 30 2% 0.00 in - 0% 5 mhos 454 - Yes - - -
11/23/2017 07:56 Wet 34.0F - - 32F 25 2% 0.00 in - 0% 5 mhos 454 - Yes - - -
11/23/2017 07:46 Wet 34.0F - - 32F 30 2% 0.00 in - 0% 5 mhos 452 - Yes - - -
11/23/2017 07:42 Wet 33.8F - - 32F 25 2% 0.00 in - 0% 5 mhos 451 - Yes - - -
11/23/2017 07:36 Wet 33.8F - - 32F 25 1% 0.00 in - 0% 5 mhos 450 - Yes - - -
11/23/2017 07:26 Wet 34.0F - - 32F 25 1% 0.00 in - 0% 5 mhos 448 - Yes - - -
11/23/2017 07:26 Wet 34.0F - - 32F 25 1% 0.00 in - 0% 5 mhos 447 - Yes - - -
11/23/2017 07:15 Wet 34.2F - - 32F 25 1% 0.00 in - 0% 5 mhos 446 - Yes - - -
11/23/2017 07:11 Wet 34.3F - - 32F 20 1% 0.00 in - 0% 5 mhos 445 - Yes - - -
11/23/2017 07:05 Wet 34.7F - - 32F 20 1% 0.00 in - 0% 5 mhos 445 - Yes - - -
11/23/2017 06:56 Wet 34.9F - - 32F 15 1% 0.00 in - 0% 5 mhos 443 - Yes - - -
11/23/2017 06:55 Wet 34.9F - - 32F 15 1% 0.00 in - 0% 5 mhos 443 - Yes - - -
11/23/2017 06:45 Wet 35.1F - - 32F 15 1% 0.00 in - 0% 5 mhos 442 - Yes - - -
11/23/2017 06:41 Wet 34.9F - - 32F 20 1% 0.00 in - 0% 5 mhos 442 - Yes - - -
11/23/2017 06:35 Wet 35.1F - - 32F 15 1% 0.00 in - 0% 5 mhos 441 - Yes - - -
Date/Time
(MST)
Sf
Temp Chem Water Layer Surface Precipitation
Sfc Pvt Sub Frz Factor Pct Dpth DpthThk IcePct Cond Salin FI Type Intens Accum Rate
11/23/2017 06:26 Wet 35.1F - - 32F 15 1% 0.00 in - 0% 5 mhos 442 - Yes - - -
11/23/2017 06:25 Wet 35.2F - - 32F 20 1% 0.00 in - 0% 5 mhos 441 - Yes - - -
11/23/2017 06:15 Wet 34.9F - - 32F 15 1% 0.00 in - 0% 5 mhos 440 - Yes - - -
11/23/2017 06:11 Wet 35.1F - - 32F 15 1% 0.00 in - 0% 5 mhos 440 - Yes - - -
11/23/2017 06:05 Wet 35.2F - - 32F 15 1% 0.00 in - 0% 5 mhos 439 - Yes - - -
11/23/2017 05:56 Wet 35.8F - - 32F 15 1% 0.00 in - 0% 5 mhos 439 - Yes - - -
11/23/2017 05:55 Wet 35.8F - - 32F 15 1% 0.00 in - 0% 5 mhos 439 - Yes - - -
11/23/2017 05:45 Wet 35.8F - - 32F 15 1% 0.00 in - 0% 5 mhos 441 - Yes - - -
11/23/2017 05:41 Wet 35.8F - - 32F 15 1% 0.00 in - 0% 5 mhos 442 - Yes - - -
11/23/2017 05:35 Wet 35.4F - - 32F 15 1% 0.00 in - 0% 5 mhos 443 - Yes - - -
11/23/2017 05:26 Wet 35.8F - - 32F 15 1% 0.00 in - 0% 5 mhos 443 - Yes - - -
11/23/2017 05:25 Wet 36.0F - - 32F 15 1% 0.00 in - 0% 5 mhos 443 - Yes - - -
11/23/2017 05:15 Wet 36.0F - - 32F 15 1% 0.00 in - 0% 5 mhos 445 - Yes - - -
11/23/2017 05:11 Wet 36.0F - - 32F 15 1% 0.00 in - 0% 5 mhos 446 - Yes - - -
11/23/2017 05:05 Wet 36.3F - - 32F 15 1% 0.00 in - 0% 5 mhos 446 - Yes - - -
Date/Time
(MST)
Sf
Temp Chem Water Layer Surface Precipitation
Sfc Pvt Sub Frz Factor Pct Dpth DpthThk IcePct Cond Salin FI Type Intens Accum Rate
11/23/2017 04:56 Wet 36.3F - - 32F 15 1% 0.00 in - 0% 5 mhos 449 - Yes - - -
11/23/2017 04:55 Wet 36.3F - - 32F 15 1% 0.00 in - 0% 5 mhos 449 - Yes - - -
11/23/2017 04:45 Wet 36.7F - - 32F 15 2% 0.00 in - 0% 5 mhos 452 - Yes - - -
11/23/2017 04:41 Wet 36.9F - - 32F 15 2% 0.00 in - 0% 5 mhos 454 - Yes - - -
11/23/2017 04:35 Wet 36.7F - - 32F 25 2% 0.00 in - 0% 5 mhos 457 - Yes - - -
11/23/2017 04:26 Wet 36.3F - - 32F 25 2% 0.00 in - 0% 5 mhos 460 - Yes - - -
11/23/2017 04:25 Wet 36.3F - - 32F 25 2% 0.00 in - 0% 5 mhos 460 - Yes - - -
11/23/2017 04:15 Wet 36.1F - - 32F 30 2% 0.00 in - 0% 5 mhos 461 - Yes - - -
11/23/2017 04:11 Wet 36.1F - - 32F 30 2% 0.00 in - 0% 5 mhos 461 - Yes - - -
11/23/2017 04:05 Wet 36.0F - - 32F 30 2% 0.00 in - 0% 5 mhos 461 - Yes - - -
11/23/2017 03:56 Wet 36.0F - - 32F 30 2% 0.00 in - 0% 5 mhos 462 - Yes - - -
11/23/2017 03:55 Wet 36.0F - - 32F 35 2% 0.00 in - 0% 5 mhos 462 - Yes - - -
11/23/2017 03:45 Wet 35.6F - - 32F 30 2% 0.00 in - 0% 5 mhos 461 - Yes - - -
11/23/2017 03:41 Wet 35.8F - - 32F 30 2% 0.00 in - 0% 5 mhos 461 - Yes - - -
11/23/2017 03:35 Wet 35.6F - - 32F 30 2% 0.00 in - 0% 5 mhos 461 - Yes - - -
Date/Time
(MST)
Sf
Temp Chem Water Layer Surface Precipitation
Sfc Pvt Sub Frz Factor Pct Dpth DpthThk IcePct Cond Salin FI Type Intens Accum Rate
11/23/2017 03:26 Wet 35.6F - - 32F 30 2% 0.00 in - 0% 5 mhos 459 - Yes - - -
11/23/2017 03:24 Wet 35.6F - - 32F 30 2% 0.00 in - 0% 5 mhos 459 - Yes - - -
11/23/2017 03:14 Wet 35.6F - - 32F 30 2% 0.00 in - 0% 5 mhos 459 - Yes - - -
11/23/2017 03:11 Wet 35.8F - - 32F 30 2% 0.00 in - 0% 5 mhos 458 - Yes - - -
11/23/2017 03:04 Wet 36.0F - - 32F 30 2% 0.00 in - 0% 5 mhos 459 - Yes - - -
11/23/2017 02:56 Wet 35.6F - - 32F 30 2% 0.00 in - 0% 5 mhos 458 - Yes - - -
11/23/2017 02:54 Wet 35.4F - - 32F 30 2% 0.00 in - 0% 5 mhos 458 - Yes - - -
11/23/2017 02:44 Wet 35.6F - - 32F 25 2% 0.00 in - 0% 5 mhos 455 - Yes - - -
11/23/2017 02:41 Wet 35.8F - - 32F 30 2% 0.00 in - 0% 5 mhos 455 - Yes - - -
11/23/2017 02:34 Wet 35.8F - - 32F 25 2% 0.00 in - 0% 5 mhos 454 - Yes - - -
11/23/2017 02:26 Wet 35.8F - - 32F 25 2% 0.00 in - 0% 5 mhos 454 - Yes - - -
11/23/2017 02:24 Wet 36.0F - - 32F 25 2% 0.00 in - 0% 5 mhos 453 - Yes - - -
11/23/2017 02:14 Wet 36.1F - - 32F 30 2% 0.00 in - 0% 5 mhos 451 - Yes - - -
11/23/2017 02:11 Wet 36.0F - - 32F 30 2% 0.00 in - 0% 5 mhos 452 - Yes - - -
11/23/2017 02:04 Wet 36.1F - - 32F 30 2% 0.00 in - 0% 5 mhos 451 - Yes - - -
Date/Time
(MST)
Sf
Temp Chem Water Layer Surface Precipitation
Sfc Pvt Sub Frz Factor Pct Dpth DpthThk IcePct Cond Salin FI Type Intens Accum Rate
11/23/2017 01:56 Wet 36.0F - - 32F 30 1% 0.00 in - 0% 5 mhos 450 - Yes - - -
11/23/2017 01:54 Wet 36.0F - - 32F 30 1% 0.00 in - 0% 5 mhos 449 - Yes - - -
11/23/2017 01:44 Wet 35.8F - - 32F 25 1% 0.00 in - 0% 5 mhos 448 - Yes - - -
11/23/2017 01:41 Wet 36.0F - - 32F 25 1% 0.00 in - 0% 5 mhos 447 - Yes - - -
11/23/2017 01:34 Wet 36.0F - - 32F 25 1% 0.00 in - 0% 5 mhos 445 - Yes - - -
11/23/2017 01:26 Wet 35.4F - - 32F 25 1% 0.00 in - 0% 5 mhos 442 - Yes - - -
11/23/2017 01:24 Wet 35.6F - - 32F 25 1% 0.00 in - 0% 5 mhos 442 - Yes - - -
11/23/2017 01:14 Wet 35.2F - - 32F 20 1% 0.00 in - 0% 5 mhos 436 - Yes - - -
11/23/2017 01:11 Wet 35.2F - - 32F 20 1% 0.00 in - 0% 5 mhos 436 - Yes - - -
11/23/2017 01:04 Wet 35.4F - - 32F 20 1% 0.00 in - 0% 4 mhos 434 - Yes - - -
11/23/2017 00:56 Wet 35.4F - - 32F 20 1% 0.00 in - 0% 4 mhos 432 - Yes - - -
11/23/2017 00:54 Wet 35.8F - - 32F 20 1% 0.00 in - 0% 4 mhos 431 - Yes - - -
11/23/2017 00:44 Wet 35.6F - - 32F 20 1% 0.00 in - 0% 4 mhos 427 - Yes - - -
11/23/2017 00:41 Wet 35.6F - - 32F 20 1% 0.00 in - 0% 4 mhos 427 - Yes - - -
11/23/2017 00:34 Wet 35.8F - - 32F 20 1% 0.00 in - 0% 4 mhos 424 - Yes - - -
Date/Time
(MST)
Sf
Temp Chem Water Layer Surface Precipitation
Sfc Pvt Sub Frz Factor Pct Dpth DpthThk IcePct Cond Salin FI Type Intens Accum Rate
11/23/2017 00:26 Wet 36.0F - - 32F 15 1% 0.00 in - 0% 4 mhos 421 - Yes - - -
11/23/2017 00:24 Wet 36.1F - - 32F 15 1% 0.00 in - 0% 4 mhos 421 - Yes - - -
11/23/2017 00:14 Wet 36.5F - - 32F 15 1% 0.00 in - 0% 4 mhos 420 - Yes - - -
11/23/2017 00:11 Wet 36.7F - - 32F 20 1% 0.00 in - 0% 4 mhos 419 - Yes - - -
11/23/2017 00:04 Wet 37.0F - - 32F 15 1% 0.00 in - 0% 4 mhos 418 - Yes - - -
11/22/2017 23:56 Wet 37.4F - - 32F 20 1% 0.00 in - 0% 4 mhos 418 - Yes - - -
11/22/2017 23:54 Wet 37.0F - - 32F 20 1% 0.00 in - 0% 4 mhos 418 - Yes - - -
11/22/2017 23:44 Wet 37.4F - - 32F 20 1% 0.00 in - 0% 4 mhos 416 - Yes - - -
11/22/2017 23:41 Wet 37.4F - - 32F 20 1% 0.00 in - 0% 4 mhos 416 - Yes - - -
11/22/2017 23:34 Wet 37.0F - - 32F 20 1% 0.00 in - 0% 4 mhos 414 - Yes - - -
11/22/2017 23:26 Wet 36.9F - - 32F 20 1% 0.00 in - 0% 4 mhos 411 - Yes - - -
11/22/2017 23:23 Wet 36.9F - - 32F 20 1% 0.00 in - 0% 4 mhos 410 - Yes - - -
11/22/2017 23:13 Wet 36.7F - - 32F 20 1% 0.00 in - 0% 4 mhos 408 - Yes - - -
11/22/2017 23:11 Wet 36.7F - - 32F 20 1% 0.00 in - 0% 4 mhos 408 - Yes - - -
11/22/2017 23:03 Wet 37.2F - - 32F 20 1% 0.00 in - 0% 4 mhos 405 - Yes - - -
Date/Time
(MST)
Sf
Temp Chem Water Layer Surface Precipitation
Sfc Pvt Sub Frz Factor Pct Dpth DpthThk IcePct Cond Salin FI Type Intens Accum Rate
11/22/2017 22:56 Wet 37.2F - - 32F 20 1% 0.00 in - 0% 4 mhos 403 - Yes - - -
11/22/2017 22:53 Wet 37.4F - - 32F 15 1% 0.00 in - 0% 4 mhos 403 - Yes - - -
11/22/2017 22:43 Wet 37.6F - - 32F 15 1% 0.00 in - 0% 4 mhos 400 - Yes - - -
11/22/2017 22:41 Wet 37.4F - - 32F 15 1% 0.00 in - 0% 4 mhos 400 - Yes - - -
11/22/2017 22:33 Wet 37.8F - - 32F 15 1% 0.00 in - 0% 4 mhos 398 - Yes - - -
11/22/2017 22:26 Wet 37.6F - - 32F 20 1% 0.00 in - 0% 4 mhos 397 - Yes - - -
11/22/2017 22:23 Wet 37.9F - - 32F 20 1% 0.00 in - 0% 4 mhos 396 - Yes - - -
11/22/2017 22:13 Wet 37.9F - - 32F 15 1% 0.00 in - 0% 4 mhos 395 - Yes - - -
11/22/2017 22:11 Wet 37.6F - - 32F 20 1% 0.00 in - 0% 4 mhos 395 - Yes - - -
11/22/2017 22:03 Wet 37.9F - - 32F 20 1% 0.00 in - 0% 4 mhos 393 - Yes - - -
11/22/2017 21:56 Wet 37.6F - - 32F 20 1% 0.00 in - 0% 4 mhos 389 - Yes - - -
11/22/2017 21:53 Wet 37.6F - - 32F 15 1% 0.00 in - 0% 4 mhos 387 - Yes - - -
11/22/2017 21:43 Wet 37.6F - - 32F 25 1% 0.00 in - 0% 4 mhos 381 - Yes - - -
11/22/2017 21:41 Wet 37.4F - - 32F 20 1% 0.00 in - 0% 4 mhos 377 - Yes - - -
11/22/2017 21:33 Wet 37.6F - - 32F 20 1% 0.00 in - 0% 4 mhos 375 - Yes - - -
Date/Time
(MST)
Sf
Temp Chem Water Layer Surface Precipitation
Sfc Pvt Sub Frz Factor Pct Dpth DpthThk IcePct Cond Salin FI Type Intens Accum Rate
11/22/2017 21:26 Wet 37.8F - - 32F 20 1% 0.00 in - 0% 4 mhos 375 - Yes - - -
11/22/2017 21:23 Wet 38.3F - - 32F 20 1% 0.00 in - 0% 4 mhos 372 - Yes - - -
11/22/2017 21:13 Wet 38.5F - - 32F 25 1% 0.00 in - 0% 4 mhos 372 - Yes - - -
11/22/2017 21:11 Wet 38.5F - - 32F 20 1% 0.00 in - 0% 4 mhos 366 - Yes - - -
11/22/2017 21:03 Wet 38.1F - - 32F 25 1% 0.00 in - 0% 4 mhos 363 - Yes - - -
11/22/2017 20:56 Wet 37.9F - - 32F 25 1% 0.00 in - 0% 4 mhos 359 - Yes - - -
11/22/2017 20:53 Wet 37.6F - - 32F 25 1% 0.00 in - 0% 4 mhos 355 - Yes - - -
11/22/2017 20:43 Wet 37.4F - - 32F 20 1% 0.00 in - 0% 4 mhos 348 - Yes - - -
11/22/2017 20:41 Wet 37.4F - - 32F 15 1% 0.00 in - 0% 4 mhos 348 - Yes - - -
11/22/2017 20:33 Wet 37.6F - - 32F 20 1% 0.00 in - 0% 4 mhos 342 - Yes - - -
11/22/2017 20:26 Wet 37.6F - - 32F 15 1% 0.00 in - 0% 4 mhos 337 - Yes - - -
11/22/2017 20:23 Wet 37.8F - - 32F 15 1% 0.00 in - 0% 4 mhos 337 - Yes - - -
11/22/2017 20:13 Wet 38.1F - - 32F 15 1% 0.00 in - 0% 4 mhos 335 - Yes - - -
11/22/2017 20:11 Wet 38.5F - - 32F 15 1% 0.00 in - 0% 4 mhos 334 - Yes - - -
11/22/2017 20:03 Wet 38.8F - - 32F 20 1% 0.00 in - 0% 4 mhos 328 - Yes - - -
Date/Time
(MST)
Sf
Temp Chem Water Layer Surface Precipitation
Sfc Pvt Sub Frz Factor Pct Dpth DpthThk IcePct Cond Salin FI Type Intens Accum Rate
11/22/2017 19:56 Wet 38.8F - - 32F 15 1% 0.00 in - 0% 4 mhos 328 - Yes - - -
11/22/2017 19:53 Wet 39.0F - - 32F 15 1% 0.00 in - 0% 4 mhos 327 - Yes - - -
11/22/2017 19:43 Wet 38.8F - - 32F 10 1% 0.00 in - 0% 3 mhos 320 - Yes - - -
11/22/2017 19:41 Wet 38.8F - - 32F 10 1% 0.00 in - 0% 3 mhos 317 - Yes - - -
11/22/2017 19:32 Wet 38.8F - - 32F 10 1% 0.00 in - 0% 3 mhos 316 - Yes - - -
11/22/2017 19:26 Wet 39.0F - - 32F 10 1% 0.00 in - 0% 3 mhos 312 - Yes - - -
11/22/2017 19:22 Wet 39.0F - - 32F 10 1% 0.00 in - 0% 3 mhos 308 - Yes - - -
11/22/2017 19:12 Wet 39.6F - - 32F 15 1% 0.00 in - 0% 3 mhos 306 - Yes - - -
11/22/2017 19:11 Wet 39.6F - - 32F 10 1% 0.00 in - 0% 3 mhos 302 - Yes - - -
11/22/2017 19:02 Wet 40.1F - - 32F 10 1% 0.00 in - 0% 3 mhos 304 - Yes - - -
11/22/2017 18:56 Wet 40.1F - - 32F 10 1% 0.00 in - 0% 3 mhos 301 - Yes - - -
11/22/2017 18:52 Wet 40.1F - - 32F 10 1% 0.00 in - 0% 3 mhos 300 - Yes - - -
11/22/2017 18:42 Wet 40.1F - - 32F 10 1% 0.00 in - 0% 3 mhos 300 - Yes - - -
11/22/2017 18:41 Wet 40.3F - - 32F 10 1% 0.00 in - 0% 3 mhos 299 - Yes - - -
11/22/2017 18:32 Wet 40.8F - - 32F 10 1% 0.00 in - 0% 3 mhos 298 - Yes - - -
Date/Time
(MST)
Sf
Temp Chem Water Layer Surface Precipitation
Sfc Pvt Sub Frz Factor Pct Dpth DpthThk IcePct Cond Salin FI Type Intens Accum Rate
11/22/2017 18:26 Wet 41.0F - - 32F 10 1% 0.00 in - 0% 3 mhos 297 - Yes - - -
11/22/2017 18:22 Wet 41.2F - - 32F 10 1% 0.00 in - 0% 3 mhos 297 - Yes - - -
11/22/2017 18:12 Wet 41.4F - - 32F 10 1% 0.00 in - 0% 3 mhos 299 - Yes - - -
11/22/2017 18:11 Wet 41.5F - - 32F 10 1% 0.00 in - 0% 3 mhos 298 - Yes - - -
11/22/2017 18:02 Wet 41.4F - - 32F 10 1% 0.00 in - 0% 3 mhos 299 - Yes - - -
11/22/2017 17:56 Wet 41.9F - - 32F 10 1% 0.00 in - 0% 3 mhos 301 - Yes - - -
11/22/2017 17:52 Wet 41.7F - - 32F 10 1% 0.00 in - 0% 3 mhos 301 - Yes - - -
11/22/2017 17:42 Wet 41.7F - - 32F 10 1% 0.00 in - 0% 3 mhos 301 - Yes - - -
11/22/2017 17:41 Wet 41.7F - - 32F 10 1% 0.00 in - 0% 3 mhos 301 - Yes - - -
11/22/2017 17:32 Wet 42.1F - - 32F 10 1% 0.00 in - 0% 3 mhos 304 - Yes - - -
11/22/2017 17:26 Wet 42.4F - - 32F 10 1% 0.00 in - 0% 3 mhos 303 - Yes - - -
11/22/2017 17:22 Wet 42.8F - - 32F 10 1% 0.00 in - 0% 3 mhos 304 - Yes - - -
11/22/2017 17:12 Wet 43.2F - - 32F 10 1% 0.00 in - 0% 3 mhos 303 - Yes - - -
11/22/2017 17:11 Wet 43.2F - - 32F 10 1% 0.00 in - 0% 3 mhos 303 - Yes - - -
11/22/2017 17:02 Wet 43.2F - - 32F 10 1% 0.00 in - 0% 4 mhos 307 - Yes - - -
Date/Time
(MST)
Sf
Temp Chem Water Layer Surface Precipitation
Sfc Pvt Sub Frz Factor Pct Dpth DpthThk IcePct Cond Salin FI Type Intens Accum Rate
11/22/2017 16:56 Wet 43.3F - - 32F 10 1% 0.00 in - 0% 4 mhos 306 - Yes - - -
11/22/2017 16:52 Wet 44.1F - - 32F 10 1% 0.00 in - 0% 4 mhos 312 - Yes - - -
11/22/2017 16:42 Wet 44.6F - - 32F 10 1% 0.00 in - 0% 4 mhos 317 - Yes - - -
11/22/2017 16:41 Wet 44.6F - - 32F 10 1% 0.00 in - 0% 4 mhos 317 - Yes - - -
11/22/2017 16:32 Wet 45.3F - - 32F 10 1% 0.00 in - 0% 4 mhos 323 - Yes - - -
11/22/2017 16:27 Wet 45.5F - - 32F 5 1% 0.00 in - 0% 4 mhos 327 - Yes - - -
11/22/2017 16:22 Wet 46.2F - - 32F 5 1% 0.00 in - 0% 4 mhos 338 - Yes - - -
11/22/2017 16:12 Wet 46.8F - - 32F 5 1% 0.00 in - 0% 4 mhos 357 - Yes - - -
11/22/2017 16:11 Wet 46.8F - - 32F 5 1% 0.00 in - 0% 4 mhos 357 - Yes - - -
11/22/2017 16:02 Wet 47.8F - - 32F 5 1% 0.00 in - 0% 5 mhos 402 - Yes - - -
11/22/2017 15:56 Wet 48.4F - - 32F 5 1% 0.00 in - 0% 5 mhos 415 - Yes - - -
11/22/2017 15:52 Wet 48.9F - - 32F 5 1% 0.00 in - 0% 5 mhos 427 - Yes - - -
11/22/2017 15:42 Wet 48.7F - - 32F 5 1% 0.00 in - 0% 5 mhos 447 - Yes - - -
11/22/2017 15:41 Wet 48.6F - - 32F 5 1% 0.00 in - 0% 5 mhos 449 - Yes - - -
11/22/2017 15:31 Wet 49.6F - - 32F 5 2% 0.00 in - 0% 6 mhos 469 - Yes - - -
Date/Time
(MST)
Sf
Temp Chem Water Layer Surface Precipitation
Sfc Pvt Sub Frz Factor Pct Dpth DpthThk IcePct Cond Salin FI Type Intens Accum Rate
11/22/2017 15:26 Wet 50.2F - - 32F 5 2% 0.00 in - 0% 6 mhos 483 - Yes - - -
11/22/2017 15:21 Wet 50.5F - - 32F 5 2% 0.00 in - 0% 6 mhos 490 - Yes - - -
11/22/2017 15:11 Wet 51.8F - - 32F 5 2% 0.00 in - 0% 7 mhos 534 - Yes - - -
11/22/2017 15:11 Wet 51.8F - - 32F 5 2% 0.00 in - 0% 7 mhos 534 - Yes - - -
11/22/2017 15:01 Wet 51.6F - - 31F 5 2% 0.00 in - 0% 7 mhos 569 - Yes - - -
11/22/2017 14:57 Wet 51.1F - - 31F 5 2% 0.00 in - 0% 7 mhos 585 - Yes - - -
11/22/2017 14:51 Wet 50.9F - - 31F 5 2% 0.00 in - 0% 8 mhos 608 - Yes - - -
11/22/2017 14:41 Wet 51.8F - - 31F 5 2% 0.00 in - 0% 8 mhos 630 - Yes - - -
11/22/2017 14:31 Wet 50.9F - - 31F 5 2% 0.00 in - 0% 8 mhos 659 - Yes - - -
11/22/2017 14:26 Wet 50.9F - - 31F 5 2% 0.00 in - 0% 8 mhos 668 - Yes - - -
11/22/2017 14:21 Wet 49.8F - - 31F 5 2% 0.00 in - 0% 8 mhos 672 - Yes - - -
11/22/2017 14:11 Wet 48.4F - - 31F 5 2% 0.00 in - 0% 8 mhos 676 - Yes - - -
11/22/2017 14:11 Wet 48.4F - - 31F 5 2% 0.00 in - 0% 8 mhos 676 - Yes - - -
11/22/2017 14:01 Wet 48.6F - - 31F 20 2% 0.00 in - 0% 8 mhos 693 - Yes - - -
11/22/2017 13:56 Wet 48.4F - - 31F 30 2% 0.00 in - 0% 8 mhos 702 - Yes - - -
Date/Time
(MST)
Sf
Temp Chem Water Layer Surface Precipitation
Sfc Pvt Sub Frz Factor Pct Dpth DpthThk IcePct Cond Salin FI Type Intens Accum Rate
11/22/2017 13:51 Wet 48.0F - - 31F 30 2% 0.00 in - 0% 9 mhos 718 - Yes - - -
11/22/2017 13:41 Wet 48.7F - - 31F 30 2% 0.00 in - 0% 9 mhos 739 - Yes - - -
11/22/2017 13:41 Wet 48.7F - - 31F 30 2% 0.00 in - 0% 9 mhos 739 - Yes - - -
11/22/2017 13:31 Wet 49.3F - - 31F 85 3% 0.00 in - 0% 9 mhos 753 - Yes - - -
11/22/2017 13:26 Wet 49.5F - - 31F 95 3% 0.00 in - 0% 9 mhos 762 - Yes - - -
11/22/2017 13:21 Wet 49.8F - - 31F 95 3% 0.00 in - 0% 9 mhos 758 - Yes - - -
11/22/2017 13:11 Wet 49.6F - - 31F 95 2% 0.00 in - 0% 9 mhos 718 - Yes - - -
11/22/2017 13:11 Wet 49.6F - - 31F 95 2% 0.00 in - 0% 9 mhos 718 - Yes - - -
11/22/2017 13:01 Wet 48.9F - - 31F 75 2% 0.00 in - 0% 9 mhos 724 - Yes - - -
11/22/2017 12:56 Wet 49.8F - - 31F 70 2% 0.00 in - 0% 9 mhos 732 - Yes - - -
11/22/2017 12:51 Wet 50.0F - - 31F 85 2% 0.00 in - 0% 9 mhos 742 - Yes - - -
11/22/2017 12:41 Wet 46.9F - - 31F 75 2% 0.00 in - 0% 9 mhos 747 - Yes - - -
11/22/2017 12:41 Wet 46.9F - - 31F 75 2% 0.00 in - 0% 9 mhos 747 - Yes - - -
11/22/2017 12:31 Wet 45.9F - - 31F 70 3% 0.00 in - 0% 9 mhos 762 - Yes - - -
11/22/2017 12:26 Wet 45.9F - - 31F 80 3% 0.00 in - 0% 9 mhos 770 - Yes - - -
Date/Time
(MST)
Sf
Temp Chem Water Layer Surface Precipitation
Sfc Pvt Sub Frz Factor Pct Dpth DpthThk IcePct Cond Salin FI Type Intens Accum Rate
11/22/2017 12:21 Wet 45.9F - - 31F 80 3% 0.00 in - 0% 9 mhos 775 - Yes - - -
11/22/2017 12:11 Wet 45.7F - - 31F 85 3% 0.00 in - 0% 9 mhos 785 - Yes - - -
11/22/2017 12:11 Wet 45.7F - - 31F 95 3% 0.00 in - 0% 9 mhos 790 - Yes - - -
11/22/2017 12:01 Wet 45.3F - - 31F 95 3% 0.00 in - 0% 9 mhos 800 - Yes - - -
11/22/2017 11:56 Wet 45.3F - - 31F 95 3% 0.00 in - 0% 9 mhos 799 - Yes - - -
11/22/2017 11:51 Wet 45.1F - - 31F 95 3% 0.00 in - 0% 10 mhos 827 - Yes - - -
11/22/2017 11:41 Wet 45.1F - - 31F 95 3% 0.00 in - 0% 10 mhos 848 - Yes - - -
11/22/2017 11:40 Wet 45.1F - - 31F 95 3% 0.00 in - 0% 10 mhos 848 - Yes - - -
11/22/2017 11:30 Wet 45.0F - - 31F 90 3% 0.00 in - 0% 10 mhos 911 - Yes - - -
11/22/2017 11:26 Wet 45.1F - - 31F 95 3% 0.00 in - 0% 11 mhos 917 - Yes - - -
11/22/2017 11:20 Wet 44.6F - - 31F 95 3% 0.00 in - 0% 11 mhos 980 - Yes - - -
11/22/2017 11:11 Wet 44.1F - - 31F 95 3% 0.00 in - 0% 11 mhos 993 - Yes - - -
11/22/2017 11:10 Wet 43.9F - - 31F 95 3% 0.00 in - 0% 11 mhos 996 - Yes - - -
11/22/2017 11:00 Wet 43.2F - - 31F 95 3% 0.00 in - 0% 11 mhos 1020 - Yes - - -
11/22/2017 10:56 Wet 43.0F - - 31F 95 3% 0.00 in - 0% 11 mhos 1030 - Yes - - -
Date/Time
(MST)
Sf
Temp Chem Water Layer Surface Precipitation
Sfc Pvt Sub Frz Factor Pct Dpth DpthThk IcePct Cond Salin FI Type Intens Accum Rate
11/22/2017 10:50 Wet 42.6F - - 31F 95 3% 0.00 in - 0% 12 mhos 1039 - Yes - - -
11/22/2017 10:41 Wet 42.3F - - 31F 95 4% 0.00 in - 0% 12 mhos 1053 - Yes - - -
11/22/2017 10:40 Wet 42.3F - - 31F 95 4% 0.00 in - 0% 12 mhos 1054 - Yes - - -
11/22/2017 10:30 Wet 42.3F - - 31F 95 4% 0.00 in - 0% 12 mhos 1060 - Yes - - -
11/22/2017 10:26 Wet 42.1F - - 31F 95 4% 0.00 in - 0% 12 mhos 1061 - Yes - - -
11/22/2017 10:20 Wet 41.7F - - 31F 95 4% 0.00 in - 0% 12 mhos 1093 - Yes - - -
11/22/2017 10:11 Wet 42.1F - - 31F 95 4% 0.00 in - 0% 12 mhos 1097 - Yes - - -
11/22/2017 10:10 Wet 42.3F - - 31F 95 4% 0.00 in - 0% 12 mhos 1097 - Yes - - -
11/22/2017 10:00 Wet 41.4F - - 31F 95 4% 0.00 in - 0% 12 mhos 1118 - Yes - - -
11/22/2017 09:56 Wet 41.2F - - 31F 95 4% 0.00 in - 0% 12 mhos 1114 - Yes - - -
11/22/2017 09:50 Wet 40.6F - - 31F 95 4% 0.00 in - 0% 12 mhos 1115 - Yes - - -
11/22/2017 09:41 Wet 40.3F - - 31F 95 4% 0.00 in - 0% 12 mhos 1124 - Yes - - -
11/22/2017 09:40 Wet 40.3F - - 31F 95 4% 0.00 in - 0% 12 mhos 1124 - Yes - - -
Change End Date:

Copyright © 1998-2015 Vaisala, Inc.
All Rights Reserved
Send comments about the data to:
SCAN Web ® is a registered trademark of Vaisala, Inc.
SCAN Web Version 6.0